Change the Weather History Date:

Monday, November 26, 2012

  Actual Average (KISN) Record (KISN)
Temperature  
Mean Temperature 16 °F 21 °F  
Max Temperature 32 °F 32 °F 58 °F (1963)
Min Temperature 1 °F 11 °F -19 °F (1985)
Degree Days  
Heating Degree Days 48 44  
Month to date heating degree days 956  
Since 1 July heating degree days 1983  
Cooling Degree Days 0 0  
Month to date cooling degree days 0  
Year to date cooling degree days 456  
Moisture  
Dew Point 14 °F    
Average Humidity 84    
Maximum Humidity 100    
Minimum Humidity 69    
Precipitation  
Precipitation 0.00 in 0.02 in 0.40 in (1896)
Month to date precipitation 0.58  
Year to date precipitation 13.68  
Sea Level Pressure  
Sea Level Pressure 30.20 in    
Wind  
Wind Speed 6 mph (SW)    
Max Wind Speed 17 mph    
Max Gust Speed 22 mph    
Visibility 10 miles    
Events      
T = Trace of Precipitation, MM = Missing Value Source: NWS Daily Summary

Daily Weather History Graph

Daily Weather History Graph

Search for Another Location

Airport or City:

Trip Planner

Search our weather history database for the weather conditions in past years. The results will help you decide how hot, cold, wet, or windy it might be!

Date:

Astronomy

Nov. 26, 2012 Rise Set
Actual Time 8:15 AM CST 5:05 PM CST
Civil Twilight 7:40 AM CST 5:40 PM CST
Nautical Twilight 7:01 AM CST 6:18 PM CST
Astronomical Twilight 6:24 AM CST 6:55 PM CST
Moon 4:02 PM CST (11/26) 6:22 AM CST (11/26)
Length of Visible Light 10h 00m
Length of Day
8h 50m
Waxing Gibbous, 97% of the Moon is Illuminated
Nov 26
Waxing Gibbous
Nov 28
Full
Dec 6
Last Quarter
Dec 13
New
Dec 19
First Quarter

Hourly Weather History & Observations

Time (CST) Temp. Windchill Dew Point Humidity Pressure Visibility Wind Dir Wind Speed Gust Speed Precip Events Conditions
12:15 AM 3.2 °F - -0.4 °F 85% 30.29 in 10.0 mi Calm Calm - N/A   Clear
12:35 AM 3.2 °F - -0.4 °F 85% 30.29 in 10.0 mi Calm Calm - N/A   Clear
12:55 AM 3.2 °F -4.2 °F -0.4 °F 85% 30.29 in 10.0 mi SW 3.5 mph - N/A   Clear
1:15 AM 1.4 °F -6.2 °F -0.4 °F 92% 30.29 in 10.0 mi SW 3.5 mph - N/A   Clear
1:35 AM 3.2 °F -6.2 °F -0.4 °F 85% 30.29 in 10.0 mi SW 4.6 mph - N/A   Clear
1:55 AM 3.2 °F -6.2 °F -0.4 °F 85% 30.29 in 10.0 mi NNW 4.6 mph - N/A   Clear
2:15 AM 3.2 °F -6.2 °F -0.4 °F 85% 30.29 in 10.0 mi North 4.6 mph - N/A   Clear
2:35 AM 3.2 °F -6.2 °F -0.4 °F 85% 30.30 in 10.0 mi North 4.6 mph - N/A   Clear
2:55 AM 1.4 °F -9.9 °F -0.4 °F 92% 30.30 in 10.0 mi SW 5.8 mph - N/A   Clear
3:15 AM 3.2 °F -6.2 °F -0.4 °F 85% 30.30 in 10.0 mi SW 4.6 mph - N/A   Clear
3:35 AM 1.4 °F -8.3 °F -0.4 °F 92% 30.30 in 10.0 mi SW 4.6 mph - N/A   Clear
3:55 AM 3.2 °F -9.1 °F -0.4 °F 85% 30.30 in 10.0 mi SW 6.9 mph - N/A   Clear
4:15 AM 5.0 °F -6.9 °F -0.4 °F 78% 30.29 in 10.0 mi SW 6.9 mph - N/A   Partly Cloudy
4:35 AM 5.0 °F -6.9 °F -0.4 °F 78% 30.29 in 10.0 mi SW 6.9 mph - N/A   Scattered Clouds
4:55 AM 6.8 °F -5.9 °F 1.4 °F 79% 30.29 in 10.0 mi SW 8.1 mph - N/A   Mostly Cloudy
5:15 AM 6.8 °F -4.8 °F 3.2 °F 85% 30.29 in 10.0 mi WSW 6.9 mph - N/A   Overcast
5:35 AM 8.6 °F -1.3 °F 5.0 °F 85% 30.28 in 10.0 mi SW 5.8 mph - N/A   Overcast
5:55 AM 8.6 °F 0.1 °F 5.0 °F 85% 30.28 in 10.0 mi SW 4.6 mph - N/A   Overcast
6:15 AM 10.4 °F -2.4 °F 6.8 °F 85% 30.28 in 10.0 mi SW 9.2 mph - N/A   Overcast
6:35 AM 10.4 °F -3.3 °F 6.8 °F 85% 30.27 in 10.0 mi SW 10.4 mph - N/A   Overcast
6:55 AM 12.2 °F -3.7 °F 6.8 °F 79% 30.27 in 10.0 mi SW 15.0 mph - N/A   Overcast
7:15 AM 12.2 °F -1.8 °F 6.8 °F 79% 30.27 in 10.0 mi SW 11.5 mph - N/A   Overcast
7:35 AM 12.2 °F 1.7 °F 8.6 °F 85% 30.26 in 10.0 mi NW 6.9 mph - N/A   Overcast
7:55 AM 14.0 °F 1.2 °F 8.6 °F 79% 30.26 in 10.0 mi SW 10.4 mph - N/A   Overcast
8:15 AM 14.0 °F 2.0 °F 10.4 °F 86% 30.26 in 10.0 mi WSW 9.2 mph - N/A   Overcast
8:35 AM 15.8 °F 2.7 °F 10.4 °F 79% 30.25 in 10.0 mi SW 11.5 mph - N/A   Overcast
8:55 AM 15.8 °F 0.9 °F 10.4 °F 79% 30.24 in 10.0 mi SW 15.0 mph 20.7 mph N/A   Overcast
9:15 AM 15.8 °F 1.4 °F 12.2 °F 86% 30.24 in 10.0 mi SW 13.8 mph - N/A   Overcast
9:35 AM 15.8 °F 3.4 °F 12.2 °F 86% 30.24 in 10.0 mi SW 10.4 mph 21.9 mph N/A   Overcast
9:55 AM 17.6 °F 7.3 °F 12.2 °F 79% 30.27 in 10.0 mi SW 8.1 mph - N/A   Overcast
10:15 AM 17.6 °F 4.3 °F 14.0 °F 86% 30.26 in 10.0 mi WSW 12.7 mph 18.4 mph N/A   Mostly Cloudy
10:35 AM 17.6 °F 5.0 °F 14.0 °F 86% 30.26 in 10.0 mi SW 11.5 mph - N/A   Mostly Cloudy
10:55 AM 19.4 °F 6.6 °F 14.0 °F 80% 30.25 in 10.0 mi SW 12.7 mph - N/A   Mostly Cloudy
11:15 AM 21.2 °F 9.5 °F 15.8 °F 80% 30.25 in 10.0 mi SW 11.5 mph - N/A   Scattered Clouds
11:35 AM 23.0 °F 13.9 °F 15.8 °F 74% 30.25 in 10.0 mi SW 8.1 mph - N/A   Scattered Clouds
11:55 AM 24.8 °F 14.6 °F 17.6 °F 74% 30.24 in 10.0 mi SW 10.4 mph - N/A   Partly Cloudy
12:15 PM 28.4 °F 18.0 °F 19.4 °F 69% 30.23 in 10.0 mi SW 12.7 mph - N/A   Mostly Cloudy
12:35 PM 28.4 °F 16.6 °F 23.0 °F 80% 30.22 in 10.0 mi WSW 16.1 mph - N/A   Overcast
12:55 PM 28.4 °F 16.2 °F 23.0 °F 80% 30.22 in 10.0 mi West 17.3 mph - N/A   Mostly Cloudy
1:15 PM 30.2 °F 20.2 °F 23.0 °F 75% 30.22 in 10.0 mi West 12.7 mph 18.4 mph N/A   Overcast
1:35 PM 32.0 °F 22.1 °F 24.8 °F 75% 30.21 in 10.0 mi WSW 13.8 mph - N/A   Overcast
1:55 PM 32.0 °F 22.5 °F 24.8 °F 75% 30.19 in 10.0 mi WSW 12.7 mph - N/A   Scattered Clouds
2:15 PM 32.0 °F 22.1 °F 24.8 °F 75% 30.18 in 10.0 mi West 13.8 mph 20.7 mph N/A   Clear
2:35 PM 32.0 °F 22.5 °F 24.8 °F 75% 30.17 in 10.0 mi WSW 12.7 mph - N/A   Clear
2:55 PM 32.0 °F 24.2 °F 24.8 °F 75% 30.16 in 10.0 mi SW 9.2 mph - N/A   Clear
3:15 PM 32.0 °F 24.2 °F 24.8 °F 75% 30.16 in 10.0 mi WSW 9.2 mph - N/A   Clear
3:35 PM 32.0 °F 23.6 °F 24.8 °F 75% 30.15 in 10.0 mi WSW 10.4 mph - N/A   Clear
3:55 PM 32.0 °F 23.6 °F 24.8 °F 75% 30.15 in 10.0 mi WSW 10.4 mph - N/A   Clear
4:15 PM 32.0 °F 24.8 °F 24.8 °F 75% 30.14 in 10.0 mi SW 8.1 mph - N/A   Clear
4:35 PM 32.0 °F 27.5 °F 24.8 °F 75% 30.14 in 10.0 mi WSW 4.6 mph - N/A   Clear
4:55 PM 32.0 °F 28.7 °F 24.8 °F 75% 30.14 in 10.0 mi WSW 3.5 mph - N/A   Clear
5:15 PM 28.4 °F 23.3 °F 24.8 °F 86% 30.13 in 10.0 mi WSW 4.6 mph - N/A   Clear
5:35 PM 28.4 °F 23.3 °F 24.8 °F 86% 30.13 in 10.0 mi SSW 4.6 mph - N/A   Mostly Cloudy
5:55 PM 28.4 °F 22.2 °F 24.8 °F 86% 30.13 in 10.0 mi SW 5.8 mph - N/A   Overcast
6:15 PM 26.6 °F 20.0 °F 23.0 °F 86% 30.12 in 10.0 mi SW 5.8 mph - N/A   Partly Cloudy
6:35 PM 26.6 °F 21.2 °F 23.0 °F 86% 30.12 in 10.0 mi WSW 4.6 mph - N/A   Clear
6:55 PM 24.8 °F 19.1 °F 23.0 °F 93% 30.12 in 10.0 mi SW 4.6 mph - N/A   Clear
7:15 PM 24.8 °F 17.9 °F 23.0 °F 93% 30.11 in 10.0 mi WSW 5.8 mph - N/A   Clear
7:35 PM 24.8 °F 17.9 °F 21.2 °F 86% 30.11 in 10.0 mi SW 5.8 mph - N/A   Clear
7:55 PM 23.0 °F 18.4 °F 19.4 °F 86% 30.10 in 10.0 mi SW 3.5 mph - N/A   Clear
8:15 PM 23.0 °F - 19.4 °F 86% 30.10 in 10.0 mi Calm Calm - N/A   Clear
8:35 PM 23.0 °F 17.0 °F 21.2 °F 93% 30.10 in 10.0 mi SW 4.6 mph - N/A   Clear
8:55 PM 19.4 °F 12.8 °F 17.6 °F 93% 30.10 in 10.0 mi SW 4.6 mph - N/A   Clear
9:15 PM 19.4 °F 10.4 °F 17.6 °F 93% 30.09 in 10.0 mi SW 6.9 mph - N/A   Clear
9:35 PM 17.6 °F - 17.6 °F 100% 30.09 in 10.0 mi Calm Calm - N/A   Clear
9:55 PM 19.4 °F 14.3 °F 17.6 °F 93% 30.10 in 10.0 mi SW 3.5 mph - N/A   Clear
10:15 PM 19.4 °F 9.5 °F 17.6 °F 93% 30.09 in 10.0 mi SSW 8.1 mph - N/A   Clear
10:35 PM 19.4 °F 8.6 °F 19.4 °F 100% 30.09 in 10.0 mi SSW 9.2 mph - N/A   Clear
10:55 PM 19.4 °F 10.4 °F 17.6 °F 93% 30.09 in 10.0 mi SW 6.9 mph - N/A   Clear
11:15 PM 17.6 °F 9.3 °F 15.8 °F 93% 30.08 in 10.0 mi SW 5.8 mph - N/A   Clear
11:35 PM 17.6 °F 12.3 °F 17.6 °F 100% 30.08 in 10.0 mi North 3.5 mph - N/A   Clear
11:55 PM 17.6 °F - 15.8 °F 93% 30.08 in 10.0 mi Calm Calm - N/A   Clear